This is the latest recevied weather packets stored in our database for station/object CQ0XSM-11. If no packets are shown the sender has not sent any weather packets the latest 10 day(s).
| Time | Temp. | Humidity | Pressure | Rain* | Wind** | Luminosity | Snow |
|---|---|---|---|---|---|---|---|
| 1778019712 | 8.33° C | 100% | 996.9 hPa | 0 mm | - | - | - |
| 1778019394 | 8.33° C | 100% | 997 hPa | 0 mm | - | - | - |
| 1778019123 | 8.89° C | 100% | 996.8 hPa | 0 mm | - | - | - |
| 1778018789 | 8.89° C | 100% | 997 hPa | 0 mm | - | - | - |
| 1778018509 | 8.89° C | 100% | 997 hPa | 0 mm | - | - | - |
| 1778018202 | 8.89° C | 100% | 997 hPa | 0 mm | - | - | - |
| 1778017906 | 8.89° C | 100% | 997.2 hPa | 0 mm | - | - | - |
| 1778017595 | 8.89° C | 100% | 997.2 hPa | 0 mm | - | - | - |
| 1778017317 | 8.89° C | 100% | 997.2 hPa | 0 mm | - | - | - |
| 1778016985 | 9.44° C | 100% | 997.2 hPa | 0 mm | - | - | - |
| 1778016687 | 9.44° C | 100% | 997.3 hPa | 0 mm | - | - | - |
| 1778016387 | 9.44° C | 100% | 997.2 hPa | 0 mm | - | - | - |
| 1778015762 | 9.44° C | 100% | 997.2 hPa | 0 mm | - | - | - |
| 1778015473 | 9.44° C | 100% | 997.1 hPa | 0 mm | - | - | - |
| 1778015160 | 9.44° C | 100% | 997.2 hPa | 0 mm | - | - | - |
| 1778014896 | 9.44° C | 100% | 997.1 hPa | 0 mm | - | - | - |
| 1778014569 | 9.44° C | 99% | 997.2 hPa | 0 mm | - | - | - |
| 1778013947 | 10° C | 95% | 997.1 hPa | 0 mm | - | - | - |
| 1778013058 | 10° C | 90% | 997 hPa | 0 mm | - | - | - |
| 1778012126 | 10.56° C | 85% | 997 hPa | 0 mm | - | - | - |
| 1778011847 | 10.56° C | 83% | 996.9 hPa | 0 mm | - | - | - |
| 1778011537 | 10.56° C | 81% | 996.9 hPa | 0 mm | - | - | - |
| 1778011233 | 10.56° C | 78% | 996.8 hPa | 0 mm | - | - | - |
| 1778010922 | 10.56° C | 77% | 996.8 hPa | 0 mm | - | - | - |
| 1778010621 | 11.11° C | 75% | 996.7 hPa | 0 mm | - | - | - |
* Rain since midnight (hover to see other rain measurements)
** Current wind speed in m/s (hover to see current wind gust speed)